www.pogodaiklimat.ru

Погода и климат >> Архив погоды >> Македония >> Штип


ПОГОДА в Штипе

  • Прогноз погоды в Штипе
  • Монитор погоды в Штипе

АРХИВ ПОГОДЫ в Штипе

Время (UTC), дата Ветер
(напр.,м/с)
 
Видим.   Явления Облачность Т
(С)
Тd
(С)
f
(%)
Тe
(С)
Тes
(С)
Комфортность P
(гПа)
Po
(гПа)
Тmin
(С)
Tmax
(С)
R
(мм)
R24
(мм)
S
(см)
15 13.09 СВ 6 20 км 1/1 1230 м
[Sc]
+28.3 +0.7 17 +26 +27 жарко 1022.0 985.1
18 13.09 С 4 20 км 3/0
[Ci fib]
+23.0 +3.7 28 +23 +23 комфорт 1024.1 986.5 +30.0
00 14.09 ЮВ 1 20 км ясно +17.2 +6.9 51 +18 +18 1026.8 988.4
03 14.09 ЮВ 2 20 км ясно +13.5 +6.2 61 +13 +13 1027.0 988.2
06 14.09 ЮЗ 1 20 км ясно +13.4 +6.4 63 +14 +16 1028.1 989.1 +10.4
09 14.09 З 2 20 км ясно +23.7 +7.6 36 +24 +35 комфорт 1025.9 988.4
12 14.09 З 4 20 км 1/1 1000 м
[Cu hum]
+28.3 +8.2 28 +28 +35 жарко 1023.2 986.3
15 14.09 З 8
{12}
20 км ясно +28.1 +8.4 29 +28 +28 жарко 1021.1 984.2
18 14.09 ЮЗ 2
{12}
20 км ясно +23.7 +8.5 38 +24 +24 комфорт 1022.5 985.1 +29.5
21 14.09 С 4 20 км ясно +20.0 +9.4 50 +21 +21 комфорт 1025.1 987.1
00 15.09 С 1 20 км ясно +18.0 +10.5 62 +19 +19 1025.8 987.6
03 15.09 ЮВ 3 20 км ясно +14.9 +9.8 72 +14 +14 1026.9 988.2
06 15.09 штиль 0 20 км ясно +15.2 +9.9 71 +15 +18 1027.8 989.1 +13.2
09 15.09 ЮЗ 2 20 км 1/1 1000 м
[Cu Sc]
+24.2 +11.0 43 +25 +35 комфорт 1026.0 988.6
12 15.09 ЮЗ 2 20 км 1/1 1000 м
[Sc diur, vesp]
+28.0 +7.6 28 +28 +37 жарко 1023.3 986.4
15 15.09 С 2 20 км 1/1 1230 м
[Sc]
+28.6 +7.9 27 +28 +30 жарко 1021.1 984.4
18 15.09 ЮВ 2 20 км ясно +23.2 +8.3 38 +24 +24 комфорт 1021.5 984.0 +30.0
21 15.09 З 1 20 км ясно +18.6 +8.1 50 +20 +20 1022.4 984.4
00 16.09 С 1 20 км ясно +15.7 +9.0 64 +16 +16 1022.8 984.4
03 16.09 штиль 0 20 км ясно +13.5 +8.7 73 +13 +13 1022.5 983.8
06 16.09 штиль 0 20 км ясно +14.2 +9.0 71 +14 +16 1022.4 983.7 +12.6
09 16.09 З 2 20 км ясно +23.3 +9.8 42 +25 +36 комфорт 920.1
12 16.09 З 5 20 км ясно +28.7 +6.9 25 +28 +34 жарко 1016.7 980.1
15 16.09 З 4 20 км ясно +30.6 +3.9 18 +28 +30 жарко 1014.6 978.3
18 16.09 ЮВ 2 20 км ясно +24.2 +5.1 29 +24 +24 комфорт 1015.3 978.2 +31.1
21 16.09 СВ 2 20 км ясно +19.2 +6.7 44 +20 +20 1017.1 979.3
00 17.09 Ю 1 20 км ясно +15.7 +6.2 53 +17 +17 1017.8 979.6
03 17.09 С 1 20 км ясно +12.5 +6.5 67 +13 +13 1018.1 979.4
06 17.09 штиль 0 20 км ясно +13.3 +6.8 65 +13 +16 1018.6 980.0 +11.6
09 17.09 З 1 20 км ясно +24.6 +6.8 32 +25 +37 комфорт 1017.9 979.8
12 17.09 С 2 20 км 1/0 1000 м
[Ci fib]
+30.9 +7.5 23 +30 +40 жарко 1013.7 977.5
15 17.09 В 2 20 км 6/1 1000 м
[Sc Ci fib]
+31.5 +2.8 16 +29 +30 жарко 1012.0 975.9
18 17.09 Ю 2 20 км 5/1 1000 м
[Sc Ci fib]
+24.9 +1.7 22 +24 +24 комфорт 1012.6 975.7 +32.7
21 17.09 С 3 20 км 3/0
[Ci fib]
+20.2 +5.3 38 +21 +21 комфорт 1014.2 976.6
00 18.09 СВ 2 20 км ясно +17.8 +5.2 43 +18 +18 1014.8 976.9
03 18.09 СВ 1 20 км ясно +14.5 +5.9 56 +15 +15 1015.2 976.8
06 18.09 В 1 20 км ясно +15.3 +6.9 57 +16 +18 1016.3 978.0 +13.0
09 18.09 ЮЗ 2 20 км 3/1 1230 м
[Cu hum Ac lent]
+25.6 +9.1 35 +26 +34 жарко 1015.5 978.6
12 18.09 СЗ 8
{13}
20 км 3/1 1000 м
[Cu Sc Ac lent]
+27.5 +9.2 32 +28 +29 жарко 1014.6 978.0
15 18.09 СЗ 9
{15}
20 км 3/1 1000 м
[Cu Sc Ac lent]
+24.8 +8.7 36 +25 +25 комфорт 1015.2 978.2
18 18.09 СЗ 9
{14}
20 км 4/0
[Ac trans]
+19.5 +7.1 45 +19 +19 1017.4 979.7 +28.5
21 18.09 СЗ 6
{13}
20 км 6/0
[Ac trans]
+17.0 +5.2 46 +16 +16 1019.9 981.7
00 19.09 З 4 20 км 10/0
[Ac As]
+16.0 +4.1 45 +15 +15 1020.4 982.1
06 19.09 штиль 0 20 км 9/0
[Ac As]
+14.6 +6.0 56 +14 +15 1021.5 983.0 +14.2
09 19.09 штиль 0 20 км туман 9/0 1000 м
[Ac As]
+14.5 +7.8 64 +14 +20 1022.0 983.5
12 19.09 С 2 20 км туман 5/0 1000 м
[Ac trans Ci fib]
+19.9 +9.1 50 +22 +29 комфорт 1019.5 981.7 0.5
15 19.09 СЗ 10
{13}
20 км 6/3 1000 м
[Cu Sc Ac trans Cs]
+18.9 +6.8 45 +18 +18 1018.1 980.3
18 19.09 СЗ 4
{15}
20 км туман 10/4 1000 м
[Frnb Ac As]
+13.5 +6.7 63 +12 +12 1020.7 982.1 +23.2 0.1
21 19.09 СЗ 7 20 км 10/5 1230 м
[Frnb Ac As]
+12.9 +6.2 64 +10 +10 1022.1 983.3
00 20.09 СЗ 8
{12}
10 км слаб. дождь туман 10/5 1000 м
[Frnb As op]
+10.0 +8.2 89 +6 +6 1023.1 983.9 0.8
03 20.09 СЗ 6
{12}
10 км слаб. дождь 10/5 1000 м
[Frnb As op]
+9.8 +7.8 87 +6 +6 1023.1 983.9
06 20.09 СЗ 3 20 км слаб. морось туман 9/4 600 м
[St Ac As Ci fib]
+10.8 +6.9 77 +9 +9 1023.9 984.8 +9.7 2
09 20.09 СЗ 9
{14}
20 км 4/1 1230 м
[Cu Sc Ac lent Ci fib]
+15.3 +3.8 46 +13 +14 1023.4 984.8

 

Местоположение метеостанции Штип (Македония): широта 41.75 долгота 22.18 высота над уровнем моря 327 м.

В архиве по умолчанию представлена погода в Штипе за последнюю неделю. Архивные данные за месяц целиком и за предыдущие месяцы, начиная с января 2011 года, Вы можете получить, выбрав интересующий диапазон дат из раскрывающегося списка и нажав кнопку "Ввод!".


*Определитесь, кто Вы:
робот инопланетянин человек

Внимание! Время в таблицах - всемирное. Для получения местного времени необходимо прибавить поправку, которая равна 1 ч.

Смотрите также архив погоды в соседних городах и на ближайших метеорологических станциях:

Погода в Винице (Македония) (30 км)
Погода в Гуришках (Македония) (32 км)
Погода в Демир-Капия (Македония) (37 км)
Погода в Скопье (Македония) (51 км)
Погода в Крива-Паланке (Македония) (52 км)
Погода в Струмице (Македония) (53 км)
Погода в Берово (Македония) (56 км)
Погода в Прилепе (Македония) (69 км)
Погода в Скопье городе (Македония) (71 км)
Погода в Гевгелии (Македония) (72 км)

Пояснения к столбцам:

Ветер - указаны скорость ветра в м/с - средняя за 10 мин, порывы в срок и между сроками (в фигурных скобках) и направление, откуда дует ветер: С - северный, СВ - северо-восточный, В - восточный, ЮВ - юго-восточный, Ю - южный, ЮЗ - юго-западный, З - западный, СЗ - северо-западный.
Видимость - горизонтальная дальность видимости в метрах или километрах. При видимости от 1 до 10 км при отсутствии осадков обычно наблюдается дымка, при ухудшении видимости до 1 км и менее - туман. В сухую погоду видимость может ухудшаться дымом, пылью или мглою.
Явления - указаны атмосферные явления, наблюдавшиеся в срок или в последний час перед сроком; фигурными скобками обозначены явления, наблюдавшиеся между сроками (за 1-3 часа до срока); квадратными скобками обозначены град или гололедные отложения с указанием их диаметра в мм.
Облачность - указаны через наклонную черту общая и нижняя облачность в баллах и высота нижней границы облаков в метрах; квадратными скобками обозначены формы облаков: Ci - перистые, Cs - перисто-слоистые, Cc - перисто-кучевые, Ac - высококучевые, As - высокослоистые, Sc - слоисто-кучевые, Ns - слоисто-дождевые, Cu - кучевые, Cb - кучево-дождевые. Подробнее классификацию облаков см. в Атласе облаков (PDF).
T - Температура воздуха - температура, измеренная на высоте 2 м над землей.
Td - Температура точки росы - температура, при понижении до которой содержащийся в воздухе водяной пар достигнет насыщения.
f - Относительная влажность воздуха - влажноcть воздуха, измеренная на высоте 2 м над землей.
Te - Эффективная температура - температура, которую ощущает одетый по сезону человек в тени. Характеристика душности погоды. При расчете учитывается влияние влажности воздуха и скорости ветра на теплоощущения человека.
Tes - Эффективная температура на солнце - температура, которую ощущает человек, с поправкой на солнечный нагрев. Характеристика знойности погоды. Зависит от высоты солнца над горизонтом, облачности и скорости ветра. Ночью, в пасмурную погоду, а также при ветре 12 м/с и более поправка равна нулю.
P - Атмосферное давление - приведенное к уровню моря атмосферное давление.
Po - Атмосферное давление - измеренное на уровне метеостанции атмосферное давление.
Tmin - Минимальная температура - минимум температуры воздуха на высоте 2 м над землей.
Tmax - Максимальная температура - максимум температуры воздуха на высоте 2 м над землей.
R - Количество осадков - Количество выпавших осадков за период времени, мм. При наведении курсора мыши на число - период времени, за который выпало указанное количество осадков.
R24 - Количество осадков - Количество выпавших осадков за 24 часа, мм.
S - Снежный покров - Высота снежного покрова, см. При наведении курсора мыши на число - состояние снежного покрова и степень покрытия местности в баллах.